Weather History for MKJS - December, 2013

Change the Weather History Date:

Tuesday, December 24, 2013

  Actual Average Record
Temperature  
Mean Temperature 80 °F -  
Max Temperature 87 °F 81 °F 89 °F (2014)
Min Temperature 74 °F 73 °F 71 °F (2007)
Cooling Degree Days 16    
Growing Degree Days 30 (Base 50)    
Moisture  
Dew Point 72 °F    
Average Humidity 78    
Maximum Humidity 90    
Minimum Humidity 61    
Precipitation  
Precipitation 0.00 in - - ()
Sea Level Pressure  
Sea Level Pressure 29.99 in    
Wind  
Wind Speed 5 mph ()    
Max Wind Speed 14 mph    
Max Gust Speed -    
Visibility 8.1 miles    
Events Rain    
Averages and records for this station are not official NWS values.
T = Trace of Precipitation, MM = Missing Value Source: Averaged Metar Reports

Daily Weather History Graph

Daily Weather History Graph

Search for Another Location

Airport or City:

Trip Planner

Search our weather history database for the weather conditions in past years. The results will help you decide how hot, cold, wet, or windy it might be!

Date:

Astronomy

Dec. 24, 2013 Rise Set
Actual Time 6:40 AM EST 5:42 PM EST
Civil Twilight 6:16 AM EST 6:05 PM EST
Nautical Twilight 5:49 AM EST 6:33 PM EST
Astronomical Twilight 5:22 AM EST 7:00 PM EST
Moon 11:52 PM EST (12/24) 11:25 AM EST (12/24)
Length of Visible Light 11h 48m
Length of Day
11h 01m
Waning Gibbous, 59% of the Moon is Illuminated
Dec 24
Waning Gibbous
Dec 25
Last Quarter
Jan 1
New
Jan 7
First Quarter
Jan 15
Full

Hourly Weather History & Observations

Time (EST) Temp. Heat Index Dew Point Humidity Pressure Visibility Wind Dir Wind Speed Gust Speed Precip Events Conditions
12:00 AM 75.2 °F - 71.6 °F 89% 30.04 in 6.2 mi SE 3.5 mph - N/A   Partly Cloudy
1:00 AM 77 °F - 71 °F 77% 30.03 in 12 mi ESE 4.6 mph - -   Scattered Clouds
1:00 AM 77.0 °F - 71.6 °F 83% 30.01 in 6.2 mi ESE 4.6 mph - N/A   Partly Cloudy
2:00 AM 75.2 °F - 71.6 °F 89% 30.01 in 6.2 mi SE 3.5 mph - N/A   Partly Cloudy
3:00 AM 75.2 °F - 71.6 °F 89% 29.98 in 6.2 mi ESE 1.2 mph - N/A   Partly Cloudy
4:00 AM 75 °F - 71 °F 83% 29.99 in 12 mi ESE 3.5 mph - -   Scattered Clouds
4:00 AM 75.2 °F - 71.6 °F 89% 29.98 in 6.2 mi ESE 3.5 mph - N/A   Partly Cloudy
5:00 AM 75.2 °F - 69.8 °F 83% 29.98 in 6.2 mi East 3.5 mph - N/A   Partly Cloudy
6:00 AM 80.6 °F 84.6 °F 71.6 °F 74% 30.01 in 6.2 mi West 2.3 mph - N/A   Partly Cloudy
7:00 AM 74 °F - 72 °F 90% 30.02 in 12 mi West 1.2 mph - -   Haze
7:00 AM 75.2 °F - 71.6 °F 89% 30.01 in 6.2 mi West 1.2 mph - N/A   Partly Cloudy
8:00 AM 78.8 °F - 71.6 °F 78% 30.04 in 6.2 mi SE 3.5 mph - N/A   Partly Cloudy
9:00 AM 82.4 °F 88.2 °F 73.4 °F 74% 30.04 in 6.2 mi East 5.8 mph - N/A   Partly Cloudy
10:00 AM 83 °F - 73 °F 65% 30.06 in 16 mi East 10.4 mph - -   Haze
10:00 AM 82.4 °F 88.2 °F 73.4 °F 74% 30.06 in 6.2 mi East 10.4 mph - N/A   Partly Cloudy
11:00 AM 84.2 °F 90.9 °F 73.4 °F 70% 30.04 in 6.2 mi ENE 10.4 mph - N/A   Partly Cloudy
12:00 PM 84.2 °F 90.9 °F 73.4 °F 70% 30.01 in 6.2 mi ENE 10.4 mph - N/A   Partly Cloudy
1:00 PM 84 °F - 73 °F 61% 29.99 in 16 mi ENE 11.5 mph - -   Haze
1:00 PM 84.2 °F 90.9 °F 73.4 °F 70% 29.98 in 6.2 mi ENE 11.5 mph - N/A   Partly Cloudy
2:00 PM 84.2 °F 92.3 °F 75.2 °F 74% 29.95 in 6.2 mi ENE 12.7 mph - N/A   Partly Cloudy
3:00 PM 84.2 °F 92.3 °F 75.2 °F 74% 29.95 in 6.2 mi ENE 10.4 mph - N/A   Partly Cloudy
4:00 PM 82 °F - 73 °F 67% 29.94 in 15 mi East 9.2 mph - -   Haze
4:00 PM 82.4 °F 88.2 °F 73.4 °F 74% 29.92 in 6.2 mi East 9.2 mph - N/A   Partly Cloudy
5:00 PM 80.6 °F 85.4 °F 73.4 °F 79% 29.92 in 6.2 mi ENE 13.8 mph - N/A   Partly Cloudy
6:00 PM 78.8 °F - 71.6 °F 78% 29.92 in 6.2 mi East 5.8 mph - N/A   Partly Cloudy
7:00 PM 78 °F - 71 °F 74% 29.95 in 14 mi ESE 5.8 mph - -   Haze
7:00 PM 78.8 °F - 71.6 °F 78% 29.95 in 6.2 mi ESE 5.8 mph - N/A   Partly Cloudy
8:00 PM 77.0 °F - 71.6 °F 83% 29.95 in 6.2 mi ESE 4.6 mph - N/A   Partly Cloudy
9:00 PM 75.2 °F - 69.8 °F 83% 29.95 in 6.2 mi East 4.6 mph - N/A   Partly Cloudy
10:00 PM 76 °F - 70 °F 78% 29.98 in 12 mi East 3.5 mph - -   Haze
10:00 PM 75.2 °F - 69.8 °F 83% 29.98 in 6.2 mi East 3.5 mph - N/A   Partly Cloudy
11:00 PM 77.0 °F - 71.6 °F 83% 29.98 in 6.2 mi East 10.4 mph - N/A Rain Light Rain